Change the Weather History Date:

Monday, October 31, 2011

  Actual Average Record
Temperature  
Mean Temperature 52 °F 40 °F  
Max Temperature 69 °F 53 °F 77 °F (1999)
Min Temperature 35 °F 27 °F -4 °F (1991)
Degree Days  
Heating Degree Days 13 25  
Month to date heating degree days 523 615  
Since 1 July heating degree days 685 909  
Cooling Degree Days 0 0  
Month to date cooling degree days 20 2  
Year to date cooling degree days 561 502  
Growing Degree Days 2 (Base 50)    
Moisture  
Dew Point 27 °F    
Average Humidity 52    
Maximum Humidity 85    
Minimum Humidity 19    
Precipitation  
Precipitation 0.15 in 0.03 in 1.43 in (1974)
Month to date precipitation 1.05 1.27  
Year to date precipitation 15.99 12.94  
Sea Level Pressure  
Sea Level Pressure 29.87 in    
Wind  
Wind Speed 9 mph (NNW)    
Max Wind Speed 30 mph    
Max Gust Speed 36 mph    
Visibility 10 miles    
Events Rain    
T = Trace of Precipitation, MM = Missing Value Source: NWS Daily Summary

Daily Weather History Graph

Daily Weather History Graph

Search for Another Location

Airport or City:

Trip Planner

Search our weather history database for the weather conditions in past years. The results will help you decide how hot, cold, wet, or windy it might be!

Date:

Astronomy

Oct. 31, 2011 Rise Set
Actual Time 7:37 AM MDT 5:53 PM MDT
Civil Twilight 7:07 AM MDT 6:23 PM MDT
Nautical Twilight 6:33 AM MDT 6:57 PM MDT
Astronomical Twilight 5:59 AM MDT 7:31 PM MDT
Moon 12:51 PM MDT (10/31) 10:28 PM MDT (10/31)
Length of Visible Light 11h 15m
Length of Day
10h 15m
Waxing Crescent, 30% of the Moon is Illuminated
Oct 31
Waxing Crescent
Nov 2
First Quarter
Nov 10
Full
Nov 18
Last Quarter
Nov 24
New

Hourly Weather History & Observations

Time (MDT) Temp. Windchill Dew Point Humidity Pressure Visibility Wind Dir Wind Speed Gust Speed Precip Events Conditions
12:53 AM 46.0 °F - 19.9 °F 35% 29.93 in 10.0 mi Calm Calm - N/A   Clear
1:53 AM 46.9 °F - 21.0 °F 36% 29.92 in 10.0 mi SW 9.2 mph - N/A   Clear
2:53 AM 48.2 °F - 21.2 °F 34% 29.93 in 10.0 mi SW 11.5 mph - N/A   Clear
3:53 AM 45.0 °F - 21.9 °F 40% 29.89 in 10.0 mi Calm Calm - N/A   Clear
4:53 AM 46.0 °F 43.1 °F 23.0 °F 40% 29.87 in 10.0 mi SSW 5.8 mph - N/A   Clear
5:53 AM 45.0 °F - 21.9 °F 40% 29.89 in 10.0 mi Calm Calm - N/A   Clear
6:53 AM 43.0 °F 41.3 °F 21.9 °F 43% 29.91 in 10.0 mi South 3.5 mph - N/A   Clear
7:53 AM 37.9 °F - 23.0 °F 55% 29.92 in 10.0 mi Calm Calm - N/A   Clear
8:53 AM 53.1 °F - 23.0 °F 31% 29.90 in 10.0 mi Calm Calm - N/A   Clear
9:53 AM 57.0 °F - 25.0 °F 29% 29.84 in 10.0 mi NNW 4.6 mph - N/A   Scattered Clouds
10:53 AM 62.1 °F - 25.0 °F 24% 29.81 in 10.0 mi SW 13.8 mph - N/A   Clear
11:53 AM 64.0 °F - 25.0 °F 23% 29.79 in 10.0 mi SW 9.2 mph - N/A   Clear
12:53 PM 66.9 °F - 25.0 °F 21% 29.75 in 10.0 mi SSE 9.2 mph - N/A   Clear
1:53 PM 68.0 °F - 25.0 °F 20% 29.72 in 10.0 mi Calm Calm - N/A   Clear
2:53 PM 68.0 °F - 26.1 °F 21% 29.70 in 10.0 mi SW 6.9 mph - N/A   Clear
3:53 PM 66.9 °F - 27.0 °F 22% 29.72 in 10.0 mi North 11.5 mph 16.1 mph N/A   Partly Cloudy
4:53 PM 60.1 °F - 27.0 °F 28% 29.75 in 10.0 mi NNW 5.8 mph - N/A   Partly Cloudy
5:53 PM 52.0 °F - 26.1 °F 37% 29.79 in 10.0 mi NW 5.8 mph - N/A   Scattered Clouds
6:53 PM 53.1 °F - 32.0 °F 45% 29.85 in 10.0 mi North 25.3 mph 32.2 mph N/A   Mostly Cloudy
7:38 PM 46.4 °F 38.3 °F 37.4 °F 71% 29.95 in 10.0 mi North 23.0 mph 29.9 mph N/A   Overcast
7:53 PM 46.4 °F 40.1 °F 35.6 °F 66% 29.96 in 10.0 mi North 15.0 mph 23.0 mph N/A   Overcast
8:16 PM 44.6 °F 36.9 °F 35.6 °F 71% 29.97 in 10.0 mi North 18.4 mph 23.0 mph N/A   Overcast
8:53 PM 44.1 °F 37.7 °F 34.0 °F 68% 29.95 in 10.0 mi North 12.7 mph - N/A   Overcast
9:10 PM 44.6 °F 38.8 °F 33.8 °F 66% 29.98 in 10.0 mi North 11.5 mph - N/A   Overcast
9:53 PM 43.0 °F 34.2 °F 33.1 °F 68% 29.96 in 10.0 mi North 20.7 mph 25.3 mph N/A   Overcast
10:53 PM 41.0 °F 32.2 °F 35.1 °F 79% 29.98 in 10.0 mi North 18.4 mph 23.0 mph 0.00 in Rain Light Rain
11:53 PM 37.9 °F 30.9 °F 34.0 °F 86% 29.99 in 8.0 mi North 10.4 mph - 0.06 in Rain Rain